Regional Weather Roundup
Issued by NWS

Home | Current Version | Previous Version | Graphics & Text | Print | Product List | Glossary On
Versions: 1 2 3 4 5 6 7 8 9 10 11 12 13 14 15 16 17 18 19 20 21 22 23 24 25 26 27 28 29 30 31 32 33 34 35 36 37 38 39 40 41 42 43 44 45 46 47 48 49 50
000
ASUS43 KLSX 290607
RWRMO

WEATHER SUMMARY FOR MISSOURI
NATIONAL WEATHER SERVICE SPRINGFIELD MO
100 AM CDT FRI AUG 29 2014

NOTE: "FAIR" INDICATES FEW OR NO CLOUDS BELOW 12,000 FEET WITH NO
       SIGNIFICANT WEATHER AND/OR OBSTRUCTIONS TO VISIBILITY.
       CURRENT SKY AND/OR WEATHER CONDITIONS ARE NOT AVAILABLE FOR
       CHILLICOTHE AND FARMINGTON.

MOZ001>031-035>038-043-044-053-054-290700-
...NORTHERN AND WESTERN MISSOURI...

CITY           SKY/WX    TMP DP  RH WIND       PRES   REMARKS
KANSAS CTY INT FAIR      70  64  81 S8        29.89S
6HR MIN TEMP:  70; 6HR MAX TEMP:  87;

KANSAS C DTWN  FAIR      80  63  55 S8        29.88S
6HR MIN TEMP:  79; 6HR MAX TEMP:  90;

LEE`S SUMMIT   FAIR      76  63  64 S5        29.91S
6HR MIN TEMP:  76; 6HR MAX TEMP:  88;

ST JOSEPH      FAIR      74  67  78 SE6       29.87S
6HR MIN TEMP:  74; 6HR MAX TEMP:  87;

CHILLICOTHE      N/A     76  73  91 CALM      29.91S
6HR MIN TEMP:  75; 6HR MAX TEMP:  85;

KIRKSVILLE     FAIR      72  70  93 SE7       29.94F FOG
6HR MIN TEMP:  72; 6HR MAX TEMP:  81;


$$
MOZ066>068-077>081-088>096-101>105-290700-
...SOUTHWEST MISSOURI...

CITY           SKY/WX    TMP DP  RH WIND       PRES   REMARKS
SPRINGFIELD    FAIR      74  61  63 S8        29.95S
6HR MIN TEMP:  73; 6HR MAX TEMP:  89;

JOPLIN         FAIR      76  64  66 S10       29.93R
6HR MIN TEMP:  76; 6HR MAX TEMP:  89;


$$
MOZ032>034-039>042-045>050-055>058-069>072-290700-
...CENTRAL MISSOURI...

CITY           SKY/WX    TMP DP  RH WIND       PRES   REMARKS
COLUMBIA       FAIR      75  71  87 SE7       29.94S
6HR MIN TEMP:  75; 6HR MAX TEMP:  88;

JEFFERSON CITY FAIR      76  69  79 E5        29.93R
6HR MIN TEMP:  75; 6HR MAX TEMP:  90;

ROLLA          FAIR      73  65  75 SE9       29.96S
6HR MIN TEMP:  73; 6HR MAX TEMP:  88;

SEDALIA        FAIR      75  62  64 S7        29.92R
6HR MIN TEMP:  74; 6HR MAX TEMP:  88;

WHITEMAN AFB   FAIR      73  65  76 SW6       29.91R
OSAGE BEACH    FAIR      75  63  64 S5        29.94S

$$
MOZ051-052-059>065-290700-
...EAST CENTRAL MISSOURI...

CITY           SKY/WX    TMP DP  RH WIND       PRES   REMARKS
ST LOUIS INTL  MOCLDY    77  71  82 E8        29.98F
6HR MIN TEMP:  77; 6HR MAX TEMP:  81; 6HR PCP: TRACE;

SPIRIT OF STL  FAIR      75  70  84 SE6       29.96S
6HR MIN TEMP:  75; 6HR MAX TEMP:  78;

ST CHARLES     FAIR      73  71  93 E6        29.97S FOG
6HR MIN TEMP:  73; 6HR MAX TEMP:  76; 6HR PCP:  0.01;


$$
MOZ072>076-082>087-097>100-106>115-290700-
...SOUTH CENTRAL AND SOUTHEAST MISSOURI...

CITY           SKY/WX    TMP DP  RH WIND       PRES   REMARKS
CAPE GIRARDEAU FAIR      70  68  93 CALM      29.98S FOG
6HR MIN TEMP:  70; 6HR MAX TEMP:  75;

FARMINGTON     FAIR      72  68  88 S6        30.03F
6HR MIN TEMP:  72; 6HR MAX TEMP:  77;

POPLAR BLUFF   FAIR      73  68  84 N3        29.98R HAZE
6HR MIN TEMP:  73; 6HR MAX TEMP:  89;

WEST PLAINS    FAIR      73  63  70 SE3       30.01S
6HR MIN TEMP:  73; 6HR MAX TEMP:  88;


$$



USA.gov is the U.S. government's official web portal to all federal, state and local government web resources and services.